Find Starlink 31093

NORAD ID: 58717 Int'l Des: 2024-002 Owner: SPXS Country: US Constellation: starlink operational
LEOCIRCULAR

現在のビュー

3D地球を読み込み中...

About Starlink 31093

Starlink 31093 (NORAD 58717) is a starlink constellation satellite (v2 mini) launched Jan 3, 2024 by SPXS of US. It operates in LEO, CIRCULAR orbit with a mass of 730.00 kg.

次回通過

Passes for default location (London). Set your location on the main map for personalized predictions.

高度履歴

Loading altitude history...

軌道要素

1 58717U 24002N 26262.97484984 .00002465 00000-0 84090-4 0 9999
2 58717 53.1609 45.9300 0000842 106.5442 253.5653 15.34385329151785
Epoch: Sep 19, 2026 • Age: 30 hours

現在のステータス

高度 464.7 km
遠地点 / 近地点 N/A
速度 7.64 km/s
衛星直下点 34.44°N, 103.91°E
打ち上げ日 Jan 3, 2024
運用期間 2.7 years
タイプ internet

技術仕様

分類 Payload
質量 730.00 kg
乾燥質量 700.00 kg
長さ 0.30 m
スパン 29.00 m
形状 ? Box + pan
製造者 SPXS
バスタイプ Starlink V2M
フェーズステータス In Orbit
所有者/国 SPXS/US

Most Searched